カタログに戻る

DELTA 1 DEB

運用中SSO
NORAD 7164·DEBRIS·🇺🇸 United States

打ち上げ Nov 6, 1973 から Vandenberg Space Force Base

Loading…

次のパス (今後24時間)

TLE

最新Source: Space-Track

元期: Sep 14, 2026, 07:21 UTC

1 07164U 73086EC  26257.30671390  .00000338  00000-0  17346-2 0  9990
2 07164 101.0617 285.4217 0087208  45.1997  18.0251 12.76436362450124

AllMySatでDELTA 1 DEBをリアルタイム追跡

Download on the App Store